Flag for Estonia Weather past 2 weeks in Tallinn, Estonia

Now
52 °F

Light rain. Low clouds.


Feels Like: 49 °F
Forecast: 39 / 55 °F
Wind: 9 mph from Southwest

Location: Tallinn

Current Time: Apr 26, 2015 at 1:40:49 PM

Latest Report: Apr 26, 2015 at 1:20 PM


Visibility: 4 mi

Pressure: 29.59 "Hg

Humidity: 94%

Dew point: 50 °F

Location of TallinnLocation

Historic Weather in Tallinn — Graph

°F

Tallinn temperature yesterday

Maximum temperature yesterday: 54 °F (at 1:50 PM)
Minimum temperature yesterday: 28 °F (at 5:50 AM)
Average temperature yesterday: 44 °F

Past Weeks' High & Low Weather Summary

 TemperatureHumidityPressure
High59 °F (Apr 11, 2:50 PM)100% (Apr 15, 2:20 AM)30.12 "Hg (Apr 15, 2:20 AM)
Low28 °F (Apr 25, 5:50 AM)28% (Apr 25, 12:20 PM)29.21 "Hg (Apr 16, 4:50 AM)
Average42 °F70%29.73 "Hg
* Reported Apr 11 12:20 PM — Apr 26 12:20 PM, Tallinn, Weather by CustomWeather, © 2015

Note: Actual official high and low records may vary slightly from our data, if they occured in-between our weather recording intervals... More about our weather records

Advertising

Tallinn weather history for previous 24 hours

 ConditionsComfort  
Time TempWeatherWind HumidityBarometerVisibility
12:20 PM
Sun, Apr 26
50 °FDrizzle. Fog.7 mph100%29.59 "Hg3 mi
11:50 AM50 °FDrizzle. Mostly cloudy.6 mph94%29.59 "Hg4 mi
11:20 AM48 °FLight rain. Cloudy.6 mph100%29.59 "Hg4 mi
10:50 AM48 °FLight rain. Fog.7 mph100%29.59 "Hg2 mi
10:20 AM48 °FLight rain. Mostly cloudy.7 mph94%29.59 "Hg6 mi
9:50 AM46 °FLight rain. Mostly cloudy.7 mph100%29.59 "Hg5 mi
9:20 AM46 °FLight rain. Cloudy.7 mph93%29.59 "Hg4 mi
8:50 AM45 °FLight rain. Cloudy.7 mph100%29.59 "Hg5 mi
8:20 AM45 °FSprinkles. Cloudy.7 mph93%29.62 "Hg5 mi
7:50 AM45 °FLight rain. Mostly cloudy.7 mph93%29.62 "Hg5 mi
7:20 AM43 °FLight rain. Low clouds.7 mph100%29.62 "Hg6 mi
6:50 AM43 °FLight rain. Mostly cloudy.7 mph100%29.62 "Hg6 mi
6:20 AM43 °FLight rain. Mostly cloudy.7 mph100%29.62 "Hg6 mi
5:50 AM43 °FLight rain. Mostly cloudy.7 mph93%29.62 "Hg6 mi
5:20 AM43 °FLight rain. Overcast.7 mph93%29.65 "HgN/A
4:50 AM43 °FLight rain. Overcast.6 mph93%29.65 "HgN/A
4:20 AM45 °FLight rain. Overcast.7 mph81%29.65 "HgN/A
3:50 AM45 °FLight rain. Overcast.7 mph76%29.68 "HgN/A
3:20 AM48 °FLight rain. Passing clouds.8 mph58%29.68 "HgN/A
2:50 AM48 °FPassing clouds.8 mph58%29.68 "HgN/A
2:20 AM48 °FPassing clouds.7 mph54%29.68 "HgN/A
1:50 AM48 °FPassing clouds.9 mph54%29.71 "HgN/A
1:20 AM48 °FPassing clouds.9 mph58%29.71 "HgN/A
12:20 AM46 °FClear.9 mph62%29.74 "Hg10 mi
11:50 PM
Sat, Apr 25
46 °FClear.9 mph57%29.74 "Hg10 mi
11:20 PM46 °FPassing clouds.9 mph57%29.74 "HgN/A
10:50 PM46 °FClear.10 mph53%29.74 "Hg10 mi
10:20 PM48 °FClear.10 mph46%29.77 "Hg10 mi
9:50 PM48 °FSunny.10 mph46%29.77 "Hg10 mi
9:20 PM48 °FSunny.10 mph46%29.77 "Hg10 mi
8:50 PM48 °FSunny.9 mph43%29.77 "Hg10 mi
8:20 PM50 °FSunny.9 mph40%29.77 "Hg10 mi
7:50 PM50 °FSunny.12 mph40%29.77 "Hg10 mi
7:20 PM50 °FSunny.12 mph37%29.77 "Hg10 mi
6:50 PM50 °FSunny.14 mph32%29.80 "Hg10 mi
6:20 PM50 °FSunny.15 mph35%29.80 "Hg10 mi
5:50 PM50 °FSunny.14 mph32%29.80 "Hg10 mi
5:20 PM50 °FPassing clouds.10 mph32%29.80 "HgN/A
4:50 PM52 °FPassing clouds.12 mph28%29.80 "HgN/A
4:20 PM52 °FPassing clouds.10 mph30%29.80 "HgN/A
3:50 PM52 °FPassing clouds.10 mph30%29.83 "HgN/A
3:20 PM52 °FPassing clouds.8 mph30%29.83 "HgN/A
2:50 PM52 °FPassing clouds.9 mph30%29.83 "HgN/A
2:20 PM54 °FPassing clouds.8 mph30%29.83 "HgN/A
1:50 PM54 °FPassing clouds.3 mph30%29.83 "HgN/A
1:20 PM52 °FPassing clouds.5 mph35%29.83 "HgN/A
Weather by CustomWeather, © 2015

See weather overviewHow to use our weather pages